Weather History for Oshkosh, WI

Change the Weather History Date:

Sunday, May 26, 2013

  Actual Average Record
Temperature  
Mean Temperature 52 °F -  
Max Temperature 64 °F 69 °F 89 °F (1967)
Min Temperature 39 °F 49 °F 30 °F (1961)
Degree Days  
Heating Degree Days 14    
Growing Degree Days 2 (Base 50)    
Moisture  
Dew Point 39 °F    
Average Humidity 58    
Maximum Humidity 89    
Minimum Humidity 38    
Precipitation  
Precipitation 0.00 in - - ()
Sea Level Pressure  
Sea Level Pressure 30.27 in    
Wind  
Wind Speed 5 mph (ESE)    
Max Wind Speed 14 mph    
Max Gust Speed 18 mph    
Visibility 10 miles    
Events      
Averages and records for this station are not official NWS values.
T = Trace of Precipitation, MM = Missing Value Source: NWS Daily Summary

Daily Weather History Graph

Daily Weather History Graph

Search for Another Location

Airport:

Trip Planner

Search our weather history database for the weather conditions in past years. The results will help you decide how hot, cold, wet, or windy it might be!

Date:

Astronomy

May. 26, 2013 Rise Set
Actual Time 5:18 AM CDT 8:25 PM CDT
Civil Twilight 4:43 AM CDT 8:59 PM CDT
Nautical Twilight 3:58 AM CDT 9:44 PM CDT
Astronomical Twilight 3:05 AM CDT 10:38 PM CDT
Moon 10:11 PM CDT (5/26) 6:47 AM CDT (5/26)
Length of Visible Light 16h 16m
Length of Day
15h 07m
Waning Gibbous, 96% of the Moon is Illuminated
May 26
Waning Gibbous
May 31
Last Quarter
Jun 8
New
Jun 16
First Quarter
Jun 23
Full

Hourly Weather History & Observations

Time (CDT) Temp. Windchill Dew Point Humidity Pressure Visibility Wind Dir Wind Speed Gust Speed Precip Events Conditions
12:53 AM 45.0 °F 43.5 °F 39.0 °F 80% 30.32 in 10.0 mi SSW 3.5 mph - N/A   Clear
1:53 AM 44.1 °F - 39.0 °F 82% 30.30 in 10.0 mi Calm Calm - N/A   Clear
2:53 AM 42.1 °F - 37.9 °F 85% 30.30 in 10.0 mi Calm Calm - N/A   Clear
3:53 AM 39.9 °F - 36.0 °F 86% 30.30 in 10.0 mi Calm Calm - N/A   Clear
4:53 AM 39.9 °F - 37.0 °F 89% 30.31 in 10.0 mi Calm Calm - N/A   Clear
5:53 AM 45.0 °F 43.5 °F 37.0 °F 74% 30.30 in 10.0 mi East 3.5 mph - N/A   Clear
6:53 AM 50.0 °F - 37.0 °F 61% 30.32 in 10.0 mi East 5.8 mph - N/A   Clear
7:53 AM 52.0 °F - 39.0 °F 61% 30.32 in 10.0 mi East 8.1 mph - N/A   Clear
8:53 AM 54.0 °F - 42.1 °F 64% 30.32 in 10.0 mi East 9.2 mph - N/A   Clear
9:53 AM 55.9 °F - 43.0 °F 62% 30.31 in 10.0 mi ENE 6.9 mph - N/A   Clear
10:53 AM 57.9 °F - 43.0 °F 58% 30.32 in 10.0 mi East 6.9 mph - N/A   Clear
11:53 AM 61.0 °F - 45.0 °F 56% 30.31 in 10.0 mi East 6.9 mph - N/A   Clear
12:53 PM 64.0 °F - 44.1 °F 48% 30.29 in 10.0 mi East 13.8 mph 18.4 mph N/A   Clear
1:53 PM 64.9 °F - 39.9 °F 40% 30.26 in 10.0 mi East 11.5 mph 18.4 mph N/A   Clear
2:53 PM 64.0 °F - 37.9 °F 38% 30.26 in 10.0 mi SE 10.4 mph - N/A   Mostly Cloudy
3:53 PM 64.0 °F - 37.9 °F 38% 30.25 in 10.0 mi SE 11.5 mph - N/A   Scattered Clouds
4:53 PM 63.0 °F - 37.0 °F 38% 30.23 in 10.0 mi SE 10.4 mph 18.4 mph N/A   Scattered Clouds
5:53 PM 62.1 °F - 37.0 °F 39% 30.21 in 10.0 mi SE 10.4 mph - N/A   Clear
6:53 PM 60.1 °F - 37.9 °F 44% 30.19 in 10.0 mi ESE 6.9 mph - N/A   Overcast
7:53 PM 59.0 °F - 37.9 °F 46% 30.19 in 10.0 mi ESE 3.5 mph - N/A   Mostly Cloudy
8:53 PM 57.9 °F - 39.0 °F 49% 30.21 in 10.0 mi East 9.2 mph - N/A   Overcast
9:53 PM 55.9 °F - 39.9 °F 55% 30.21 in 10.0 mi ESE 8.1 mph - N/A   Overcast
10:53 PM 55.0 °F - 39.0 °F 55% 30.20 in 10.0 mi East 9.2 mph - N/A   Overcast
11:53 PM 55.0 °F - 39.0 °F 55% 30.19 in 10.0 mi East 6.9 mph - N/A   Overcast